Location: Bear Branch Nature Center
(39.6445°N, 76.9901°W)
Time: 09:32:40
(UTC-04:00)

Daily predictions for brighter satellites

Satellite Brightness Start Highest point End
(mag) Time Altitude Azimuth Time Altitude Azimuth Time Altitude Azimuth
SL-27 R/B 2.8 20:54:22 10° N 20:57:58 52° ENE 21:01:27 10° SSE
Cosmos 1606 4.0 20:55:43 10° NNE 20:59:00 25° ENE 21:02:16 10° SE
Cosmos 1340 Rocket 3.8 20:56:48 10° SSW 21:00:42 52° WNW 21:04:40 10° N
Sich 1 Rocket 4.2 20:56:39 10° SSE 21:00:54 39° E 21:05:10 10° NNE
SL-08 ROCKET BODY 4.4 20:56:54 10° S 21:02:52 70° E 21:08:47 10° NNE
Cosmos 1356 Rocket 3.7 20:59:54 10° SSW 21:04:07 77° W 21:08:26 10° N
Cosmos 1892 2.9 21:00:29 10° S 21:04:17 77° W 21:08:10 10° N
PSLV R/B 4.1 21:01:19 10° W 21:04:34 41° SSW 21:07:48 10° SE
Cosmos 1782 2.9 21:05:59 10° N 21:09:59 59° E 21:13:58 10° SSE
Envisat 3.5 21:06:28 10° SE 21:11:15 44° ENE 21:16:04 10° N
ERBS 3.6 21:10:52 10° WNW 21:14:05 36° SW 21:17:16 10° SSE
GPS 2-05 Rocket1 3.8 21:11:16 10° SW 21:14:37 32° SSE 21:17:32 12° ESE
H-2A R/B 3.9 21:11:08 10° S 21:14:39 41° W 21:18:12 10° NNW
CZ-4 DEB 2.9 21:11:41 10° S 21:14:50 76° W 21:18:01 10° NNW
COSMOS 2487 4.0 21:12:58 10° NNE 21:15:52 22° ENE 21:18:09 13° ESE
Atlas Centaur 2 2.8 21:13:34 10° SW 21:16:05 18° S 21:18:09 12° SSE
Coronas F rocket 3.3 21:17:35 10° SW 21:19:58 30° W 21:22:24 10° NNW
Cosmos 1975 Rocket 4.3 21:17:01 10° NNE 21:20:34 24° ENE 21:23:13 14° ESE
Cosmos 1939 Rocket 2.9 21:17:55 10° SSE 21:21:43 59° ENE 21:25:35 10° N
ARGOS 4.5 21:23:42 13° ESE 21:27:13 23° ENE 21:31:22 10° NNE
ATLAS 5 CENTAUR R/B 3.1 21:22:22 10° NW 21:28:16 52° WSW 21:34:31 10° SSE
ERS-1 Rocket 3.0 21:23:45 10° SSE 21:28:48 84° WSW 21:33:52 10° NNW
Cosmos 2084 3.1 21:25:15 10° SSW 21:29:04 64° ESE 21:32:52 10° NE
Cosmos 1908 Rocket 3.6 21:25:08 10° S 21:29:28 64° E 21:33:52 10° NNE
Cosmos 407 Rocket 3.5 21:24:39 10° NNW 21:29:57 88° ENE 21:35:06 11° SSE
Meteor 2-6 Rocket 4.4 21:24:35 10° N 21:30:34 87° W 21:36:23 10° S
Cosmos 1733 Rocket 4.0 21:27:19 10° SSW 21:31:36 51° W 21:35:54 10° N
NOSS 5 (C) 4.2 21:28:11 10° SSW 21:31:42 81° SE 21:34:49 10° NE
Cosmos 1378 Rocket 3.7 21:28:32 10° N 21:32:45 51° E 21:36:03 16° SSE
H-2A R/B 4.0 21:32:36 10° E 21:35:24 15° ENE 21:38:16 10° NNE
Cosmos 1140 Rocket 4.2 21:31:05 10° N 21:35:52 37° ENE 21:39:05 18° ESE
deb Chang Zheng 4 3.5 21:32:58 10° NNE 21:37:24 79° ESE 21:41:50 10° S
Cosmos 1452 Rocket 3.5 21:34:19 10° SSW 21:39:33 82° ESE 21:44:52 10° NNE
USA 234 4.3 21:36:13 10° ENE 21:40:44 20° ESE 21:43:59 14° SSE
COSMOS 2406 4.3 21:36:54 10° NW 21:42:17 42° WSW 21:47:37 10° S
Cosmos 2154 Rocket 3.9 21:36:10 10° S 21:42:24 81° E 21:48:37 10° N
Nimbus 7 Rocket 4.4 21:36:54 10° NNE 21:42:51 74° ESE 21:48:50 10° S
USA 245 4.3 21:44:17 22° E 21:45:29 27° ENE 21:48:51 10° N
YAOGAN 6 3.2 21:44:09 25° ESE 21:45:37 37° ENE 21:48:53 10° N
Cosmos 1408 2.5 21:43:50 11° S 21:47:16 73° E 21:50:55 10° NNE
CZ-4B R/B 4.0 21:44:21 10° NNE 21:48:50 34° E 21:51:12 22° SE
Cosmos 1833 Rocket 4.2 21:44:37 10° N 21:48:58 22° NE 21:52:00 15° E
Cosmos 1242 Rocket 3.4 21:45:54 10° N 21:49:17 34° ENE 21:50:30 27° ESE
Cosmos 2278 Rocket 2.1 21:44:12 10° SSW 21:49:50 77° ESE 21:55:32 10° NNE
SPOT 1/Viking Rocket 4.1 21:47:24 21° SE 21:50:24 41° ENE 21:55:17 10° N
Cosmos 1825 2.1 21:47:48 10° S 21:51:37 86° E 21:55:27 10° N
CZ-4 SHROUD 3.5 21:50:46 33° SE 21:51:46 48° ENE 21:54:46 10° N
Cosmos 1844 Rocket 3.7 21:47:35 10° SW 21:53:03 49° WNW 21:58:32 10° NNE
Intercosmos 25 3.6 21:52:52 28° SE 21:54:04 38° E 21:57:03 10° NNE
Cosmos 1844 4.2 21:49:05 10° SSW 21:54:48 65° WNW 22:00:35 10° NNE
MetOp-A 4.1 21:52:41 20° SSE 21:56:28 71° ENE 22:01:48 10° N
PSLV R/B 3.0 21:55:39 40° SE 21:56:29 63° ENE 21:59:25 10° N
Cosmos 489 Rocket 4.5 21:52:26 10° NNW 21:58:39 69° ENE 22:02:34 24° SSE
H-2A R/B 2.5 21:55:26 14° S 21:59:02 60° WSW 22:03:14 10° NNW
Cosmos 1184 Rocket 2.8 21:59:22 18° SSW 22:01:41 83° W 22:05:03 10° N
Cosmos 2366 rocket 4.4 22:07:19 25° SE 22:10:27 44° E 22:16:24 10° NNE
Cosmos 2082 Rocket 2.9 22:05:12 10° N 22:10:33 40° ENE 22:13:01 27° ESE
Cosmos 1850 Rocket 4.2 22:07:48 10° NNW 22:13:05 61° ENE 22:15:24 33° SE
Terra 3.1 22:13:28 22° E 22:14:38 24° ENE 22:18:27 10° NNE
ISS -2.0 22:13:13 10° WSW 22:16:20 42° NNW 22:19:28 10° NE
Cosmos 1238 Rocket 3.3 22:13:17 10° NNW 22:16:30 49° W 22:18:32 23° SSW
SL-08 RB Rocket 4.0 22:17:18 37° SE 22:18:46 53° ENE 22:23:18 10° N
SPOT 5 3.5 22:15:48 19° S 22:19:35 60° W 22:24:54 10° NNW
Cosmos 1954 Rocket 4.5 22:14:50 10° NNW 22:19:56 57° WSW 22:23:04 23° S
Cosmos 2297 3.6 22:19:15 10° SSW 22:24:55 76° ESE 22:30:39 10° NNE
USA 229 DEB 4.2 22:18:54 10° NNW 22:25:50 52° NE 22:29:26 28° ESE
USA 229 4.2 22:19:01 10° NNW 22:25:55 52° NE 22:29:32 28° ESE
Okean 2 Rocket 3.6 22:25:23 16° SSW 22:28:48 57° W 22:33:09 10° N
Okean 3 4.5 22:26:00 10° NNW 22:30:03 42° W 22:32:25 22° SSW
OAO 3 Rocket 4.0 22:26:36 10° SW 22:30:20 34° S 22:30:20 34° S
NOAA 11 4.1 22:30:26 35° SSE 22:32:51 87° ENE 22:38:23 10° NNW
Cosmos 1741 Rocket 3.9 22:28:12 10° NNW 22:33:27 89° ENE 22:35:15 43° SSE
Cosmos 2218 Rocket 4.0 22:33:57 25° S 22:37:55 85° E 22:44:22 10° N
Cosmos 1331 Rocket 4.5 22:42:01 39° E 22:42:01 39° E 22:46:38 10° NE
CZ-4C R/B 3.4 22:43:58 61° ENE 22:44:00 61° ENE 22:48:02 10° N
ASTEX 1 4.3 22:41:09 10° NNE 22:45:20 32° E 22:45:20 32° E
Timation 1 Rocket 4.4 22:44:33 43° SSE 22:46:09 56° ESE 22:52:00 10° NNE
BREEZE-M DEB (TANK) 2.7 22:38:15 10° WNW 22:47:42 73° SW 22:48:20 60° SSE
Cosmos 1110 Rocket 4.1 22:48:01 52° ESE 22:48:26 53° ESE 22:53:30 10° NNE
DELTA 2 DEB (DPAF) 4.0 22:51:58 70° SE 22:52:26 81° ENE 22:56:56 10° N
Cosmos 1727 Rocket 3.9 22:47:52 10° N 22:54:04 80° E 22:56:01 47° SSE
DNEPR-1 R/B 4.2 22:52:52 10° NW 22:57:51 47° WSW 22:58:32 44° SW
Cosmos 2369 Rocket 4.1 23:00:27 15° ENE 23:00:27 15° ENE 23:02:01 10° ENE
CARTOSAT-1 3.5 22:58:42 70° ENE 22:58:42 70° ENE 23:02:59 10° N
Meteor 2-19 Rocket 4.3 23:00:07 45° S 23:02:07 83° E 23:08:15 10° N
ARGOS 3.9 23:05:13 32° SSW 23:07:08 44° W 23:12:16 10° NNW
Cosmos 1536 Rocket 3.8 23:06:58 10° NNW 23:11:25 62° W 23:11:40 60° WSW
Meteor 1-20 Rocket 4.1 23:11:44 56° SSW 23:13:00 85° W 23:18:35 10° N
H-2A R/B 2.1 23:13:15 60° SSW 23:14:11 75° WSW 23:19:31 10° NNW
Cosmos 1486 Rocket 4.4 23:09:41 10° N 23:14:51 48° ENE 23:15:08 47° ENE
Cosmos 1339 Rocket 4.4 23:12:20 10° N 23:18:30 79° W 23:20:00 54° S
Okean 1 3.9 23:19:18 10° N 23:22:36 57° NNW 23:22:36 57° NNW
USA 234 3.1 23:17:44 10° NE 23:24:17 83° SE 23:30:49 10° SW
Cosmos 1821 Rocket 4.1 23:27:02 53° E 23:27:18 53° E 23:33:20 10° NNE
Cosmos 1833 Rocket 3.0 23:27:46 10° NNW 23:33:13 54° WSW 23:33:42 52° SW
Cosmos 1943 Rocket 4.5 23:37:08 10° ENE 23:37:08 10° ENE 23:37:20 10° ENE
Cosmos 1934 Rocket 4.1 23:40:23 55° E 23:40:23 55° E 23:46:07 10° NNE
Cosmos 1302 Rocket 4.0 23:43:57 74° NNE 23:43:57 74° NNE 23:48:48 10° NNE
Cosmos 2123 Rocket 4.3 23:39:27 10° N 23:45:31 49° ENE 23:45:41 49° E
Cosmos 1025 Rocket 4.0 23:45:33 10° N 23:48:39 43° NNE 23:48:39 43° NNE
Meteor 2-21 4.3 23:49:42 79° S 23:50:07 89° E 23:56:22 10° N
Terra 3.0 23:52:21 33° W 23:52:21 33° W 23:56:30 10° NNW
ALOS 2 4.4 23:53:52 24° NE 23:53:52 24° NE 23:56:28 10° NNE
ISS 0.1 23:51:53 10° NW 23:53:26 13° NNW 23:55:00 10° NNE
Cosmos 2082 Rocket 3.5 23:49:41 10° NW 23:54:25 28° WSW 23:54:52 27° WSW
